Regional Weather Roundup
Issued by NWS Sterling, VA

Home | Current Version | Previous Version | Graphics & Text | Print | Product List | Glossary On
Versions: 1 2 3 4 5 6 7 8 9 10 11 12 13 14 15 16 17 18 19 20 21 22 23 24 25 26 27
000
ASUS41 KLWX 201011
RWRLWX

REGIONAL WEATHER ROUNDUP
NATIONAL WEATHER SERVICE BALTIMORE MD/WASHINGTON DC
600 AM EDT SUN AUG 20 2017

Note: "FAIR" indicates few or no clouds below 12,000 feet
with no significant weather and/or obstructions to visibility.
 TC=TEMPERATURE CELSIUS

 * =Non NWS site. Station does not report precipitation (e.g. rain,
    snow, etc.), thunder, or fog.

DCZ001-MDZ009-015-VAZ040>042-051-053>054-201100-
WASHINGTON METRO

CITY           SKY/WX    TMP DP  RH WIND       PRES   REMARKS
WASHINGTON NAT PTCLDY    71  62  73 N8        30.06R
DULLES         PTCLDY    68  63  84 N8        30.06R
ANDREWS AFB    PTCLDY    65  62  89 N5        30.05R
FT BELVOIR     CLEAR     65  64  95 CALM      30.05R
QUANTICO       PTCLDY    70  68  93 NW3       30.06R
COLLEGE PARK*  PTCLDY    67  60  77 CALM      30.05R
LEESBURG*      PTCLDY    66  64  94 N3        30.08R
MANASSAS*      PTCLDY    67  63  87 N6        30.06R
GAITHERSBURG*  PTCLDY    64  60  87 CALM      30.08R

$$

MDZ006>007-011-014-201100-
BALTIMORE METRO

CITY           SKY/WX    TMP DP  RH WIND       PRES   REMARKS
BWI AIRPORT    CLEAR     65  62  90 NW5       30.05R
MD SCIENCE CTR   N/A     72  61  68 MISG      30.05R
MARTIN STATE   CLEAR     66  64  94 NW6       30.06R
ANNAPOLIS      CLEAR     74  67  78 N6        30.04R
FORT MEADE*    CLEAR     63  61  94 CALM      30.08R

$$

MDZ012-015-019>023-201100-
MARYLAND EASTERN SHORE

CITY           SKY/WX    TMP DP  RH WIND       PRES   REMARKS
OCEAN CITY     CLEAR     70  68  93 NW5       30.03R
SALISBURY      MOCLDY    70  69  97 CALM      30.03R
BAY BRIDGE AP* CLEAR     72  64  78 N6        30.04R
CAMBRIDGE*     PTCLDY    68  68 100 CALM      30.04R FOG

$$

MDZ017>025-201100-
SOUTHERN MARYLAND

CITY           SKY/WX    TMP DP  RH WIND       PRES   REMARKS
PATUXENT RIVER CLEAR     72  69  90 N7        30.04R
ST INIGOES     CLEAR     71  69  93 CALM      30.03R
LEONARDTOWN*   CLEAR     66  64  94 CALM      30.06R

$$

MDZ003>005-201100-
NORTH CENTRAL MARYLAND

CITY           SKY/WX    TMP DP  RH WIND       PRES   REMARKS
FREDERICK*     PTCLDY    63  63 100 CALM      30.10R FOG
HAGERSTOWN APT CLEAR     62  60  93 S5        30.08R
WESTMINSTER*   CLEAR     63  61  94 CALM      30.08R

$$

MDZ501>502-201100-
WESTERN MARYLAND

CITY           SKY/WX    TMP DP  RH WIND       PRES   REMARKS
OAKLAND*         N/A     59  55  88 CALM      30.14R
CUMBERLAND*    CLEAR     61  61 100 CALM      30.14R

$$

VAZ025>031-201100-
SHENANDOAH VALLEY

CITY           SKY/WX    TMP DP  RH WIND       PRES   REMARKS
WINCHESTER*    PTCLDY    59  59 100 CALM      30.09R
FRONT ROYAL*   CLOUDY    63  63 100 CALM      30.08R VSB 1/2
LURAY*         PTCLDY    63  63 100 CALM      30.09R FOG
NEW MARKET*    MOCLDY    63  62  96 CALM      30.08S
STAUNTON*      PTCLDY    59  58  97 CALM      30.12R FOG
WAYNESBORO*    CLEAR     62  62 100 CALM      30.10S

$$

WVZ021-048>050-054>055-201100-
EASTERN WEST VIRGINIA PANHANDLE

CITY           SKY/WX    TMP DP  RH WIND       PRES   REMARKS
MARTINSBURG    CLEAR     62  59  90 N6        30.07S
PETERSBURG*    MOCLDY    64  64  99 CALM      30.11R

$$

VAZ036>039-050-201100-
CENTRAL FOOTHILLS

CITY           SKY/WX    TMP DP  RH WIND       PRES   REMARKS
CHARLOTTESVILL CLEAR     68  66  93 CALM      30.07R
CULPEPER*      PTCLDY    64  64  99 N3        30.07R
ORANGE*        CLEAR     63  63 100 CALM      30.07R
GORDONSVILLE*  CLEAR     64  64 100 CALM      30.06R
WARRENTON*     FOG       64  61  91 CALM      30.05R VSB 1/2

$$

VAZ055>057-201100-
NORTH AND CENTRAL PIEDMONT

CITY           SKY/WX    TMP DP  RH WIND       PRES   REMARKS
FREDERICKSBRG* PTCLDY    69  68  97 CALM      30.05R
STAFFORD*      CLEAR     62  62 100 N3        30.10R

$$

NCZ024-NYZ072-PAZ021-071-VAZ022-071-201100-
OTHER REGIONAL OBSERVATIONS

CITY           SKY/WX    TMP DP  RH WIND       PRES   REMARKS
NEW YORK CITY  CLEAR     70  61  73 VRB5      30.01R
PHILADELPHIA   PTCLDY    69  60  73 NW8       30.03R
PITTSBURGH     FOG       60  60 100 CALM      30.10R VSB 1/8
ROANOKE        CLEAR     64  63  96 NW3       30.11R
RICHMOND       PTCLDY    71  70  96 N5        30.03R
RALEIGH        PTCLDY    72  71  97 CALM      30.04R

$$

ANZ530>537-201100-
MARINE OBSERVATIONS

STATION/POSITION TIME  TEMP    WIND        PRES
                       AIR SEA DIR/SP/G
                 (UTC) (F)     (DEG/KT/KT) (MB)
THOMAS PT LIGHT  1000   73 80  330/  8/ 10   N/A
BALT KEY BRIDGE  0942   72     310/ 12/ 13 1017.2R
COVE POINT       0942   77      10/ 10/ 13 1017.7R
LEWISETTA        0942   78 83   10/  3/  4 1016.5R
SOLOMONS ISLAND  0942   75 82  330/  4/  5   N/A
PINEY POINT      0942           20/  6/  7   N/A

$$





USA.gov is the U.S. government's official web portal to all federal, state and local government web resources and services.